"Pseudo-MPEC" for P113qP9

Created 2020 Aug 6 7:07:11 UT using Find_Orb

Click here for an explanation of pseudo-MPECs

 
 Astrometry: 
     P113qP9  C2020 07 31Df-Pm\M=W5xG7,1U_NtQ1t;Q_lM;6i'DsNZk8qZ6KvO\XUgCO(#ZF51
     P113qP9  C2020 07 31Ao-\,P=P#kd$7Oq9GC5P#KbXl,at/Ao%NQe$Ho(:Y`+\5O\Ef#DOF51
     P113qP9  C2020 07 31[6[CeDdZI9fhq4]y(=_3SNAstrometry6(d5FQ8DN[;q_5Zc(FQ[F51
     P113qP9  C2020 08 015y=R9Q+AAg`Vg7I2qwG2redacted;HGq]'Zf(ff=!?Z-21l.RYncF52
     P113qP9  C2020 08 01F_22VcYB1Zmnb(4DnaotA,-n:_'b'Gh:WQMyb.m1JuEni/8NPnZ7F52
     P113qP9  C2020 08 01OQCkSJ9Bpslp6T=!$lr['MN1AcI]lZ]-^PO#G#Iq9#h:'Z:Soo4BF52
     P113qP9  C2020 08 01wy=:T,4D0Lt9)uRFU/4IjHC=g19dclickeVYg0?jxcT%8m.gd;4sF51
     P113qP9  C2020 08 01JC;%;8B(J\F5l%VWyF/T4Twv@8d9b@\#EwphYt$ZcJ9?'8@7Ut%cF51
     P113qP9  C2020 08 01P9p:#0hereWDFZCx*1W$i7g:Q-uCMfx!lRHUcY2@W3T1_fBc/Z+IF51
     P113qP9  C2020 08 01e8forybeeaf1WrZ2uwka=tK#_dexplanationC((R3V'KUijt*0,F51

Station data:
(F51) Pan-STARRS 1, Haleakala  (N20.707235 W156.255910)  US/Hawaii.
   Observers N. Primak, A. Schultz, S. Watters, J. Thiel, T. Goggia. Measurer
   PS1 Science Consortium. 1.8-m Ritchey-Chrétien + CCD.
(F52) Pan-STARRS 2, Haleakala  (N20.707384 W156.255910)  US/Hawaii. 1.8-m
   Ritchey-Chrétien + CCD.

Orbital elements:  P113qP9
   Perihelion 2018 Oct 6.567433 +/- 410 TT = 13:37:06 (JD 2458398.067433)
Epoch 2020 Aug  1.0 TT = JDT 2459062.5   Earth MOID: 0.9231   AutoNEOCP
M 154.83453171 +/- 120              (J2000 ecliptic)
n   0.23303272 +/- 0.215            Peri.  299.54340 +/- 70
a   2.61531962 +/- 1.67             Node   254.67325 +/- 43
e   0.3037669 +/- 0.234             Incl.   26.13797 +/- 9
P   4.23                   H 16.5   G  0.15   U 11.7  SR
q 1.82087183 +/- 1.79    Q 3.40976742 +/- 67.8
From 10 observations 2020 July 31-Aug. 1 (25.1 hr); mean residual 0".12
Residuals in arcseconds: 
200731 F51  .01+  .02+    200801 F52  .12-  .07-    200801 F51  .16-  .23+    
200731 F51  .06-  .06-    200801 F52  .19+  .03+    200801 F51  .13+  .15-    
200731 F51  .05+  .04+    200801 F51  .10-  .17+    
200801 F52  .08+  .22-    200801 F51  .02-  .00     

Ephemerides (geocentric):
Date (UTC) HH   RA              Dec         delta   r     elong  mag " sig PA
---- -- -- --  -------------   -----------  ------ ------ -----  --- ---- ---
2020 08 06 07  00 21 24.086   +35 00 55.29  2.8756 3.3690 110.6 22.3  123 151
2020 08 06 08  00 21 23.502   +35 01 09.73  2.8752 3.3690 110.6 22.3  125 151
2020 08 06 09  00 21 22.915   +35 01 24.15  2.8747 3.3691 110.7 22.3  127 151
2020 08 06 10  00 21 22.326   +35 01 38.56  2.8743 3.3691 110.7 22.3  129 151
2020 08 06 11  00 21 21.735   +35 01 52.94  2.8738 3.3691 110.7 22.3  131 151
2020 08 06 12  00 21 21.142   +35 02 07.32  2.8734 3.3692 110.8 22.3  133 151
2020 08 06 13  00 21 20.546   +35 02 21.67  2.8729 3.3692 110.8 22.3  136 151
2020 08 06 14  00 21 19.949   +35 02 36.01  2.8725 3.3692 110.8 22.3  138 151
2020 08 06 15  00 21 19.348   +35 02 50.33  2.8720 3.3693 110.9 22.3  140 151
2020 08 06 16  00 21 18.746   +35 03 04.64  2.8716 3.3693 110.9 22.3  142 151
2020 08 06 17  00 21 18.141   +35 03 18.93  2.8712 3.3693 110.9 22.3  144 151
2020 08 06 18  00 21 17.534   +35 03 33.20  2.8707 3.3694 111.0 22.3  146 151
2020 08 06 19  00 21 16.925   +35 03 47.46  2.8703 3.3694 111.0 22.3  148 151
2020 08 06 20  00 21 16.313   +35 04 01.70  2.8698 3.3694 111.0 22.3  151 151
2020 08 06 21  00 21 15.699   +35 04 15.92  2.8694 3.3695 111.1 22.3  153 151
2020 08 06 22  00 21 15.083   +35 04 30.13  2.8689 3.3695 111.1 22.3  155 151
2020 08 06 23  00 21 14.465   +35 04 44.32  2.8685 3.3695 111.1 22.3  157 151
2020 08 07 00  00 21 13.844   +35 04 58.49  2.8680 3.3696 111.2 22.3  160 151
2020 08 07 01  00 21 13.221   +35 05 12.65  2.8676 3.3696 111.2 22.3  162 151
2020 08 07 02  00 21 12.595   +35 05 26.79  2.8672 3.3696 111.2 22.3  164 151
2020 08 07 03  00 21 11.968   +35 05 40.91  2.8667 3.3697 111.3 22.3  167 151
2020 08 07 04  00 21 11.338   +35 05 55.02  2.8663 3.3697 111.3 22.3  169 151
2020 08 07 05  00 21 10.706   +35 06 09.11  2.8658 3.3697 111.3 22.3  171 151
2020 08 07 06  00 21 10.071   +35 06 23.18  2.8654 3.3698 111.4 22.3  174 151
2020 08 07 07  00 21 09.435   +35 06 37.24  2.8649 3.3698 111.4 22.3  176 151
2020 08 07 08  00 21 08.796   +35 06 51.28  2.8645 3.3698 111.4 22.3  179 151
2020 08 07 09  00 21 08.154   +35 07 05.30  2.8641 3.3699 111.5 22.3  181 151
2020 08 07 10  00 21 07.511   +35 07 19.31  2.8636 3.3699 111.5 22.3  184 151
2020 08 07 11  00 21 06.865   +35 07 33.30  2.8632 3.3699 111.5 22.3  186 151
2020 08 07 12  00 21 06.217   +35 07 47.27  2.8627 3.3700 111.6 22.3  189 151
2020 08 07 13  00 21 05.566   +35 08 01.23  2.8623 3.3700 111.6 22.3  191 151
2020 08 07 14  00 21 04.913   +35 08 15.17  2.8619 3.3700 111.6 22.3  194 151
2020 08 07 15  00 21 04.258   +35 08 29.09  2.8614 3.3701 111.7 22.3  196 151
2020 08 07 16  00 21 03.601   +35 08 42.99  2.8610 3.3701 111.7 22.3  199 151
2020 08 07 17  00 21 02.941   +35 08 56.88  2.8605 3.3701 111.7 22.3  201 151
2020 08 07 18  00 21 02.280   +35 09 10.75  2.8601 3.3702 111.8 22.3  204 151
2020 08 07 19  00 21 01.615   +35 09 24.61  2.8597 3.3702 111.8 22.3  207 151
2020 08 07 20  00 21 00.949   +35 09 38.45  2.8592 3.3702 111.8 22.3  209 151
2020 08 07 21  00 21 00.280   +35 09 52.27  2.8588 3.3703 111.9 22.3  212 151
2020 08 07 22  00 20 59.609   +35 10 06.07  2.8583 3.3703 111.9 22.3  215 151
2020 08 07 23  00 20 58.936   +35 10 19.86  2.8579 3.3703 111.9 22.3  217 151
2020 08 08 00  00 20 58.260   +35 10 33.63  2.8575 3.3704 111.9 22.3  220 151
2020 08 08 01  00 20 57.582   +35 10 47.38  2.8570 3.3704 112.0 22.3  223 151
2020 08 08 02  00 20 56.902   +35 11 01.11  2.8566 3.3704 112.0 22.3  226 151
2020 08 08 03  00 20 56.220   +35 11 14.83  2.8561 3.3704 112.0 22.3  228 151
2020 08 08 04  00 20 55.535   +35 11 28.53  2.8557 3.3705 112.1 22.3  231 151
2020 08 08 05  00 20 54.848   +35 11 42.22  2.8553 3.3705 112.1 22.3  234 151
2020 08 08 06  00 20 54.159   +35 11 55.88  2.8548 3.3705 112.1 22.3  237 151